This demonstration page uses our WeatherBlox Daily Observations layout. Learn more.

39.08367, -84.50855

Hourly Observations for July 9, 2019

Temp ( °F °C ) Dew Point ( °F °C ) Humidity (%) Winds ( mph kmh ) Pressure ( in mb ) Visibility ( mi km ) Precip ( " mm )
12:53 am 00:53 Clear 71 21.7 68 20 90 90 N 3 6 29.97 1015 10 16.09344 0 0
1:53 am 01:53 Mostly Clear 70 21.1 67 19.4 90 90 NE 5 7 29.97 1015 10 16.09344 0 0
2:53 am 02:53 Clear 68 20 64 17.8 87 87 Calm 29.97 1015 10 16.09344 0 0
3:53 am 03:53 Clear 66 18.9 64 17.8 93 93 Calm 29.97 1015 10 16.09344 0 0
4:53 am 04:53 Clear 66 18.9 63 17.2 90 90 Calm 29.97 1015 10 16.09344 0 0
5:53 am 05:53 Clear 65 18.3 63 17.2 93 93 Calm 30 1016 10 16.09344 0 0
6:53 am 06:53 Sunny 65 18.3 63 17.2 93 93 Calm 30.03 1017 10 16.09344 0 0
7:53 am 07:53 Sunny 70 21.1 63 17.2 79 79 Calm 30.03 1017 10 16.09344 0 0
8:53 am 08:53 Sunny 73 22.8 62 16.7 69 69 NE 3 6 30.03 1017 10 16.09344 0 0
9:53 am 09:53 Sunny 77 25 64 17.8 64 64 NNE 6 9 30.03 1017 10 16.09344 0 0
10:53 am 10:53 Sunny 81 27.2 66 18.9 61 61 VRB 3 6 30.03 1017 10 16.09344 0 0
11:53 am 11:53 Sunny 84 28.9 67 19.4 57 57 ENE 5 7 30 1016 10 16.09344 0 0
12:53 pm 12:53 Sunny 86 30 69 20.6 57 57 Calm 30 1016 10 16.09344 0 0
1:53 pm 13:53 Partly Cloudy 88 31.1 67 19.4 50 50 VRB 7 11 30 1016 10 16.09344 0 0
2:53 pm 14:53 Partly Cloudy 89 31.7 67 19.4 48 48 ENE 8 13 29.97 1015 10 16.09344 0 0
3:53 pm 15:53 Partly Cloudy 87 30.6 67 19.4 51 51 ESE 3 6 29.97 1015 10 16.09344 0 0
4:53 pm 16:53 Partly Cloudy 89 31.7 67 19.4 48 48 Calm 29.94 1014 10 16.09344 0 0
5:53 pm 17:53 Partly Cloudy 89 31.7 65 18.3 45 45 VRB 3 6 29.94 1014 10 16.09344 0 0
6:53 pm 18:53 Mostly Sunny 87 30.6 68 20 53 53 S 6 9 29.94 1014 10 16.09344 0 0
7:53 pm 19:53 Mostly Sunny 83 28.3 72 22.2 70 70 Calm 29.94 1014 10 16.09344 0 0
8:53 pm 20:53 Partly Cloudy 79 26.1 71 21.7 77 77 Calm 29.94 1014 10 16.09344 0 0
9:53 pm 21:53 Clear 75 23.9 70 21.1 84 84 Calm 29.97 1015 10 16.09344 0 0
10:53 pm 22:53 Clear 73 22.8 70 21.1 90 90 Calm 29.97 1015 10 16.09344 0 0
11:53 pm 23:53 Clear 73 22.8 70 21.1 90 90 Calm 29.97 1015 10 16.09344 0 0

Powered by AerisWeather